QPF
0.00 0.00 0.00 0.00 0.01 0.01 0.01 0.01 0.01 0.01 0.00 0.00 0.00 0.00 0.00 0.00 0.00 0.00 0.00 0.00 0.00 0.00 0.00 0.00 0.00 0.00 0.00 0.00 0.01 0.02 0.03 0.04 0.05 0.05 0.06 0.06 0.06 0.06 0.05 0.05 0.05 0.07 0.06 0.04
0.01 0.00 0.00 0.01 0.01 0.00 0.01 0.02 0.01 0.00 0.00 0.00 0.00 0.00 0.00 0.00 0.00 0.00 0.00 0.00 0.00 0.00 0.00 0.00 0.00 0.00 0.00 0.00 0.01 0.01 0.02 0.04 0.04 0.05 0.05 0.05 0.05 0.04 0.06 0.06 0.06 0.06 0.06 0.05
0.00 0.00 0.00 0.00 0.00 0.00 0.00 0.02 0.03 0.01 0.00 0.00 0.01 0.03 0.03 0.00 0.00 0.00 0.00 0.00 0.00 0.00 0.00 0.00 0.00 0.00 0.00 0.00 0.00 0.01 0.02 0.03 0.04 0.05 0.04 0.05 0.06 0.05 0.05 0.05 0.05 0.05 0.04 0.03
0.00 0.00 0.00 0.00 0.00 0.00 0.00 0.00 0.01 0.01 0.01 0.02 0.02 0.06 0.06 0.01 0.00 0.00 0.00 0.00 0.00 0.00 0.00 0.00 0.00 0.00 0.00 0.00 0.00 0.01 0.01 0.02 0.03 0.03 0.04 0.05 0.05 0.04 0.04 0.04 0.03 0.04 0.03 0.04
0.00 0.00 0.00 0.00 0.00 0.00 0.00 0.00 0.00 0.00 0.01 0.01 0.01 0.03 0.03 0.03 0.01 0.00 0.00 0.00 0.00 0.00 0.00 0.00 0.00 0.00 0.00 0.00 0.00 0.00 0.01 0.02 0.02 0.02 0.03 0.04 0.04 0.04 0.03 0.03 0.04 0.04 0.05 0.04
0.01 0.00 0.00 0.00 0.00 0.00 0.00 0.00 0.00 0.01 0.02 0.03 0.01 0.02 0.04 0.02 0.01 0.00 0.00 0.00 0.00 0.00 0.00 0.00 0.00 0.00 0.00 0.00 0.00 0.00 0.01 0.03 0.03 0.02 0.03 0.03 0.04 0.04 0.05 0.05 0.05 0.05 0.04 0.04
0.00 0.00 0.00 0.00 0.00 0.00 0.00 0.00 0.03 0.04 0.06 0.05 0.01 0.01 0.02 0.01 0.01 0.00 0.00 0.00 0.00 0.00 0.00 0.00 0.00 0.00 0.00 0.00 0.01 0.01 0.02 0.03 0.02 0.02 0.03 0.03 0.03 0.03 0.04 0.04 0.04 0.05 0.04 0.04
0.00 0.00 0.00 0.00 0.00 0.00 0.00 0.00 0.03 0.03 0.04 0.03 0.02 0.02 0.02 0.01 0.00 0.00 0.00 0.00 0.00 0.00 0.00 0.00 0.00 0.00 0.00 0.00 0.01 0.01 0.02 0.02 0.02 0.02 0.03 0.04 0.04 0.03 0.03 0.06 0.05 0.05 0.04 0.04
0.00 0.01 0.00 0.00 0.00 0.00 0.00 0.00 0.00 0.01 0.01 0.03 0.04 0.04 0.02 0.01 0.01 0.00 0.00 0.00 0.00 0.00 0.00 0.00 0.00 0.00 0.00 0.00 0.00 0.01 0.02 0.02 0.02 0.02 0.03 0.04 0.04 0.03 0.03 0.07 0.09 0.06 0.05 0.04
0.00 0.00 0.01 0.00 0.00 0.00 0.00 0.00 0.00 0.01 0.01 0.03 0.05 0.07 0.05 0.02 0.01 0.00 0.00 0.00 0.00 0.00 0.00 0.00 0.00 0.00 0.00 0.00 0.00 0.00 0.01 0.02 0.02 0.02 0.03 0.02 0.04 0.04 0.04 0.04 0.06 0.05 0.04 0.04
0.00 0.00 0.00 0.00 0.00 0.00 0.00 0.00 0.00 0.00 0.00 0.02 0.04 0.06 0.03 0.02 0.01 0.00 0.00 0.00 0.00 0.00 0.00 0.00 0.00 0.01 0.01 0.01 0.00 0.00 0.01 0.01 0.02 0.01 0.01 0.02 0.03 0.03 0.03 0.03 0.03 0.03 0.03 0.03
0.01 0.02 0.01 0.00 0.00 0.00 0.00 0.00 0.00 0.00 0.00 0.01 0.02 0.04 0.01 0.01 0.02 0.01 0.00 0.01 0.01 0.01 0.01 0.01 0.01 0.01 0.01 0.01 0.01 0.01 0.00 0.01 0.01 0.01 0.02 0.02 0.02 0.02 0.02 0.03 0.03 0.03 0.03 0.02
0.01 0.02 0.01 0.01 0.00 0.00 0.00 0.00 0.00 0.00 0.00 0.00 0.01 0.04 0.01 0.01 0.01 0.00 0.01 0.01 0.01 0.01 0.03 0.03 0.02 0.02 0.01 0.01 0.01 0.00 0.01 0.01 0.01 0.02 0.02 0.02 0.01 0.02 0.02 0.02 0.02 0.03 0.03 0.03
0.00 0.01 0.01 0.00 0.00 0.00 0.00 0.00 0.00 0.00 0.00 0.01 0.01 0.02 0.03 0.02 0.01 0.01 0.02 0.01 0.01 0.03 0.05 0.05 0.06 0.04 0.02 0.02 0.01 0.01 0.01 0.01 0.01 0.01 0.01 0.01 0.02 0.01 0.01 0.02 0.02 0.02 0.03 0.03
0.00 0.00 0.00 0.00 0.00 0.00 0.00 0.00 0.00 0.00 0.00 0.01 0.03 0.04 0.03 0.02 0.02 0.01 0.01 0.02 0.02 0.02 0.03 0.03 0.03 0.02 0.02 0.02 0.02 0.01 0.01 0.00 0.02 0.04 0.01 0.01 0.01 0.01 0.01 0.01 0.02 0.02 0.03 0.04
0.00 0.00 0.00 0.00 0.00 0.00 0.00 0.00 0.00 0.00 0.00 0.00 0.03 0.05 0.02 0.01 0.01 0.01 0.01 0.01 0.02 0.03 0.04 0.04 0.02 0.02 0.01 0.02 0.02 0.01 0.00 0.01 0.04 0.04 0.03 0.03 0.02 0.02 0.02 0.02 0.02 0.02 0.03 0.04
0.00 0.00 0.00 0.00 0.00 0.00 0.00 0.00 0.00 0.00 0.00 0.01 0.02 0.02 0.01 0.01 0.01 0.01 0.01 0.01 0.01 0.01 0.01 0.01 0.01 0.00 0.00 0.01 0.01 0.01 0.01 0.02 0.03 0.03 0.03 0.03 0.03 0.02 0.02 0.02 0.02 0.02 0.03 0.03
0.00 0.00 0.00 0.00 0.00 0.01 0.01 0.01 0.01 0.00 0.00 0.01 0.01 0.01 0.02 0.02 0.01 0.01 0.01 0.00 0.00 0.00 0.00 0.01 0.01 0.00 0.00 0.00 0.01 0.01 0.01 0.02 0.01 0.01 0.02 0.02 0.02 0.02 0.02 0.02 0.02 0.03 0.02 0.03
0.00 0.00 0.00 0.00 0.01 0.01 0.01 0.00 0.00 0.01 0.01 0.01 0.01 0.00 0.01 0.01 0.01 0.00 0.00 0.01 0.01 0.01 0.00 0.00 0.01 0.00 0.00 0.00 0.01 0.01 0.01 0.01 0.01 0.01 0.02 0.02 0.03 0.03 0.03 0.03 0.03 0.03 0.03 0.03
0.01 0.00 0.00 0.00 0.01 0.02 0.02 0.01 0.01 0.01 0.02 0.01 0.00 0.00 0.02 0.01 0.02 0.02 0.00 0.00 0.01 0.01 0.01 0.00 0.00 0.00 0.01 0.01 0.01 0.01 0.01 0.01 0.01 0.02 0.02 0.02 0.03 0.03 0.02 0.03 0.04 0.04 0.04 0.04
0.01 0.01 0.00 0.00 0.00 0.01 0.01 0.01 0.01 0.04 0.05 0.02 0.01 0.01 0.02 0.05 0.04 0.02 0.01 0.00 0.01 0.01 0.01 0.00 0.00 0.01 0.01 0.00 0.01 0.01 0.01 0.01 0.01 0.01 0.02 0.02 0.02 0.02 0.03 0.04 0.04 0.04 0.05 0.06
0.02 0.02 0.01 0.01 0.02 0.02 0.01 0.02 0.04 0.05 0.04 0.06 0.05 0.02 0.02 0.03 0.04 0.03 0.01 0.01 0.01 0.01 0.01 0.01 0.01 0.01 0.01 0.00 0.01 0.01 0.01 0.01 0.01 0.01 0.01 0.01 0.02 0.03 0.03 0.04 0.03 0.03 0.04 0.04
0.02 0.03 0.03 0.02 0.03 0.02 0.01 0.02 0.04 0.03 0.03 0.03 0.03 0.04 0.05 0.07 0.09 0.06 0.02 0.01 0.01 0.01 0.01 0.01 0.01 0.02 0.01 0.01 0.01 0.02 0.01 0.01 0.01 0.01 0.01 0.02 0.02 0.02 0.02 0.02 0.02 0.03 0.04 0.04
0.01 0.01 0.02 0.02 0.03 0.03 0.02 0.02 0.02 0.02 0.02 0.02 0.03 0.06 0.08 0.09 0.08 0.03 0.02 0.02 0.02 0.01 0.01 0.01 0.02 0.02 0.02 0.02 0.02 0.02 0.02 0.02 0.02 0.02 0.01 0.01 0.01 0.01 0.02 0.02 0.02 0.03 0.04 0.05
0.01 0.01 0.01 0.02 0.02 0.02 0.03 0.05 0.03 0.02 0.02 0.03 0.02 0.03 0.04 0.04 0.02 0.01 0.02 0.01 0.01 0.01 0.02 0.03 0.03 0.02 0.02 0.01 0.01 0.01 0.02 0.02 0.02 0.02 0.02 0.01 0.02 0.02 0.02 0.02 0.03 0.03 0.03 0.03
0.02 0.02 0.02 0.02 0.03 0.03 0.03 0.04 0.03 0.03 0.03 0.03 0.02 0.02 0.02 0.03 0.02 0.02 0.02 0.02 0.01 0.01 0.02 0.03 0.04 0.03 0.02 0.01 0.01 0.01 0.01 0.02 0.02 0.02 0.02 0.02 0.02 0.02 0.02 0.01 0.01 0.01 0.02 0.02
MSLP
1004.87 1005.46 1005.94 1006.31 1006.59 1006.82 1007.04 1007.29 1007.59 1007.93 1008.27 1008.58 1008.83 1009.02 1009.13 1009.20 1009.28 1009.41 1009.63 1009.95 1010.38 1010.87 1011.39 1011.88 1012.30 1012.62 1012.83 1012.96 1013.03 1013.07 1013.12 1013.21 1013.32 1013.46 1013.60 1013.70 1013.74 1013.72 1013.62 1013.48 1013.31 1013.14 1013.00 1012.92
1005.61 1005.89 1006.03 1006.08 1006.10 1006.18 1006.39 1006.76 1007.29 1007.91 1008.55 1009.12 1009.55 1009.79 1009.85 1009.76 1009.61 1009.48 1009.45 1009.58 1009.89 1010.35 1010.91 1011.49 1012.03 1012.47 1012.78 1012.97 1013.06 1013.11 1013.15 1013.22 1013.34 1013.50 1013.66 1013.79 1013.86 1013.83 1013.70 1013.50 1013.25 1013.00 1012.78 1012.65
1006.17 1006.16 1006.00 1005.78 1005.61 1005.62 1005.88 1006.42 1007.22 1008.17 1009.12 1009.96 1010.55 1010.83 1010.81 1010.52 1010.09 1009.65 1009.33 1009.22 1009.36 1009.75 1010.31 1010.97 1011.61 1012.17 1012.58 1012.85 1012.99 1013.05 1013.10 1013.17 1013.29 1013.46 1013.64 1013.79 1013.87 1013.84 1013.69 1013.43 1013.12 1012.79 1012.51 1012.32
1006.47 1006.24 1005.86 1005.46 1005.19 1005.21 1005.58 1006.35 1007.44 1008.70 1009.96 1011.02 1011.74 1012.03 1011.89 1011.37 1010.64 1009.88 1009.24 1008.86 1008.81 1009.08 1009.63 1010.33 1011.06 1011.71 1012.23 1012.57 1012.77 1012.86 1012.92 1013.00 1013.13 1013.30 1013.51 1013.68 1013.77 1013.74 1013.58 1013.29 1012.93 1012.54 1012.20 1011.95
1006.53 1006.15 1005.64 1005.16 1004.89 1004.98 1005.51 1006.51 1007.87 1009.41 1010.91 1012.14 1012.94 1013.20 1012.91 1012.17 1011.15 1010.07 1009.13 1008.50 1008.26 1008.41 1008.91 1009.63 1010.42 1011.16 1011.76 1012.18 1012.43 1012.55 1012.63 1012.71 1012.85 1013.05 1013.27 1013.46 1013.58 1013.56 1013.40 1013.10 1012.71 1012.28 1011.88 1011.58
1006.39 1005.94 1005.39 1004.91 1004.70 1004.91 1005.61 1006.81 1008.39 1010.12 1011.78 1013.12 1013.94 1014.14 1013.72 1012.77 1011.52 1010.19 1009.01 1008.17 1007.77 1007.83 1008.28 1009.00 1009.83 1010.63 1011.29 1011.76 1012.05 1012.20 1012.29 1012.38 1012.53 1012.73 1012.97 1013.19 1013.33 1013.34 1013.19 1012.89 1012.48 1012.03 1011.59 1011.24
1006.16 1005.69 1005.16 1004.74 1004.63 1004.96 1005.80 1007.14 1008.84 1010.68 1012.40 1013.76 1014.56 1014.70 1014.17 1013.10 1011.70 1010.22 1008.91 1007.95 1007.46 1007.45 1007.87 1008.59 1009.43 1010.25 1010.94 1011.44 1011.75 1011.91 1012.00 1012.10 1012.24 1012.44 1012.69 1012.92 1013.08 1013.11 1012.98 1012.69 1012.28 1011.82 1011.35 1010.97
1005.95 1005.50 1005.03 1004.70 1004.68 1005.10 1006.02 1007.41 1009.13 1010.96 1012.65 1013.97 1014.71 1014.80 1014.24 1013.14 1011.72 1010.22 1008.90 1007.93 1007.43 1007.41 1007.83 1008.53 1009.37 1010.18 1010.86 1011.35 1011.65 1011.81 1011.88 1011.95 1012.07 1012.26 1012.49 1012.71 1012.88 1012.92 1012.80 1012.52 1012.12 1011.65 1011.18 1010.76
1005.88 1005.48 1005.08 1004.83 1004.87 1005.33 1006.24 1007.58 1009.20 1010.92 1012.50 1013.72 1014.41 1014.48 1013.96 1012.94 1011.63 1010.27 1009.07 1008.21 1007.78 1007.81 1008.24 1008.93 1009.74 1010.51 1011.15 1011.59 1011.85 1011.96 1011.99 1012.02 1012.09 1012.23 1012.42 1012.61 1012.75 1012.78 1012.66 1012.39 1012.00 1011.53 1011.05 1010.61
1006.02 1005.68 1005.36 1005.17 1005.24 1005.67 1006.49 1007.67 1009.11 1010.63 1012.03 1013.12 1013.76 1013.86 1013.46 1012.63 1011.57 1010.46 1009.50 1008.85 1008.57 1008.69 1009.14 1009.81 1010.56 1011.25 1011.80 1012.17 1012.35 1012.39 1012.35 1012.31 1012.31 1012.38 1012.49 1012.62 1012.71 1012.70 1012.55 1012.28 1011.89 1011.43 1010.95 1010.51
1006.37 1006.12 1005.87 1005.73 1005.80 1006.14 1006.80 1007.76 1008.93 1010.19 1011.37 1012.32 1012.92 1013.10 1012.89 1012.34 1011.61 1010.86 1010.23 1009.84 1009.76 1009.98 1010.46 1011.08 1011.74 1012.32 1012.76 1013.01 1013.08 1013.03 1012.91 1012.78 1012.69 1012.67 1012.69 1012.72 1012.73 1012.65 1012.47 1012.17 1011.78 1011.32 1010.85 1010.42
1006.89 1006.74 1006.58 1006.48 1006.51 1006.74 1007.20 1007.90 1008.78 1009.75 1010.69 1011.50 1012.07 1012.37 1012.38 1012.17 1011.82 1011.46 1011.18 1011.09 1011.20 1011.52 1012.00 1012.55 1013.09 1013.53 1013.82 1013.94 1013.91 1013.76 1013.54 1013.33 1013.15 1013.03 1012.94 1012.87 1012.78 1012.63 1012.39 1012.06 1011.65 1011.20 1010.75 1010.32
1007.48 1007.45 1007.39 1007.34 1007.34 1007.44 1007.70 1008.13 1008.71 1009.40 1010.11 1010.78 1011.35 1011.76 1012.01 1012.13 1012.16 1012.18 1012.26 1012.42 1012.70 1013.09 1013.54 1013.99 1014.39 1014.67 1014.81 1014.80 1014.65 1014.42 1014.13 1013.85 1013.59 1013.38 1013.20 1013.04 1012.85 1012.62 1012.32 1011.95 1011.53 1011.08 1010.63 1010.22
1008.04 1008.15 1008.20 1008.19 1008.17 1008.18 1008.26 1008.44 1008.75 1009.17 1009.68 1010.24 1010.79 1011.31 1011.78 1012.20 1012.57 1012.92 1013.28 1013.65 1014.05 1014.46 1014.85 1015.18 1015.43 1015.55 1015.54 1015.42 1015.18 1014.89 1014.57 1014.24 1013.95 1013.68 1013.43 1013.19 1012.93 1012.62 1012.27 1011.87 1011.43 1010.97 1010.53 1010.11
1008.50 1008.74 1008.89 1008.95 1008.92 1008.85 1008.78 1008.77 1008.86 1009.07 1009.40 1009.85 1010.39 1011.00 1011.64 1012.29 1012.92 1013.53 1014.09 1014.61 1015.07 1015.47 1015.77 1015.97 1016.06 1016.04 1015.92 1015.71 1015.43 1015.12 1014.79 1014.48 1014.18 1013.90 1013.62 1013.33 1013.01 1012.66 1012.26 1011.83 1011.37 1010.90 1010.44 1010.00
1008.82 1009.16 1009.39 1009.51 1009.49 1009.38 1009.22 1009.06 1008.98 1009.02 1009.22 1009.58 1010.11 1010.77 1011.52 1012.33 1013.14 1013.91 1014.61 1015.20 1015.67 1016.02 1016.22 1016.30 1016.27 1016.13 1015.93 1015.68 1015.40 1015.11 1014.83 1014.56 1014.30 1014.04 1013.76 1013.46 1013.12 1012.74 1012.31 1011.85 1011.36 1010.87 1010.38 1009.91
1008.98 1009.38 1009.67 1009.83 1009.83 1009.70 1009.49 1009.25 1009.06 1008.99 1009.09 1009.39 1009.88 1010.56 1011.37 1012.27 1013.18 1014.03 1014.79 1015.41 1015.86 1016.14 1016.26 1016.23 1016.11 1015.91 1015.66 1015.41 1015.16 1014.94 1014.73 1014.54 1014.35 1014.14 1013.89 1013.60 1013.25 1012.85 1012.40 1011.91 1011.39 1010.86 1010.33 1009.79
1009.03 1009.42 1009.74 1009.91 1009.94 1009.82 1009.59 1009.32 1009.08 1008.95 1008.99 1009.24 1009.71 1010.38 1011.20 1012.12 1013.06 1013.94 1014.70 1015.30 1015.72 1015.94 1015.99 1015.91 1015.73 1015.50 1015.26 1015.04 1014.85 1014.70 1014.58 1014.48 1014.36 1014.21 1014.00 1013.73 1013.39 1012.98 1012.50 1011.98 1011.42 1010.84 1010.24 1009.64
1009.02 1009.36 1009.65 1009.83 1009.86 1009.77 1009.56 1009.30 1009.07 1008.93 1008.95 1009.17 1009.60 1010.25 1011.05 1011.95 1012.87 1013.74 1014.47 1015.04 1015.42 1015.61 1015.62 1015.50 1015.31 1015.08 1014.87 1014.69 1014.57 1014.49 1014.45 1014.41 1014.36 1014.25 1014.08 1013.82 1013.48 1013.05 1012.55 1011.99 1011.38 1010.74 1010.08 1009.40
1009.01 1009.26 1009.49 1009.65 1009.70 1009.64 1009.48 1009.28 1009.09 1008.98 1009.01 1009.22 1009.64 1010.25 1011.01 1011.86 1012.74 1013.55 1014.25 1014.78 1015.13 1015.29 1015.29 1015.17 1014.98 1014.78 1014.59 1014.46 1014.38 1014.35 1014.35 1014.35 1014.32 1014.24 1014.07 1013.81 1013.45 1013.00 1012.47 1011.86 1011.21 1010.51 1009.78 1009.04
1009.02 1009.17 1009.33 1009.47 1009.54 1009.53 1009.45 1009.33 1009.21 1009.16 1009.23 1009.46 1009.87 1010.44 1011.15 1011.94 1012.74 1013.50 1014.14 1014.63 1014.95 1015.10 1015.09 1014.98 1014.81 1014.63 1014.47 1014.35 1014.28 1014.26 1014.26 1014.26 1014.22 1014.11 1013.93 1013.64 1013.26 1012.77 1012.21 1011.57 1010.87 1010.12 1009.35 1008.55
1009.08 1009.12 1009.23 1009.35 1009.45 1009.51 1009.52 1009.51 1009.50 1009.54 1009.67 1009.92 1010.32 1010.85 1011.50 1012.21 1012.94 1013.62 1014.20 1014.64 1014.93 1015.06 1015.06 1014.96 1014.80 1014.62 1014.45 1014.31 1014.22 1014.16 1014.12 1014.07 1013.98 1013.83 1013.60 1013.27 1012.86 1012.34 1011.75 1011.08 1010.36 1009.59 1008.78 1007.97
1009.17 1009.15 1009.22 1009.34 1009.49 1009.63 1009.75 1009.86 1009.96 1010.10 1010.30 1010.59 1010.98 1011.48 1012.05 1012.68 1013.31 1013.90 1014.41 1014.79 1015.04 1015.15 1015.14 1015.03 1014.86 1014.66 1014.46 1014.28 1014.13 1014.00 1013.88 1013.75 1013.59 1013.37 1013.08 1012.71 1012.27 1011.73 1011.13 1010.45 1009.73 1008.96 1008.16 1007.34
1009.28 1009.22 1009.29 1009.44 1009.65 1009.88 1010.11 1010.34 1010.57 1010.81 1011.08 1011.40 1011.78 1012.23 1012.73 1013.27 1013.80 1014.29 1014.70 1015.02 1015.22 1015.29 1015.25 1015.12 1014.92 1014.68 1014.43 1014.18 1013.95 1013.73 1013.51 1013.29 1013.04 1012.75 1012.41 1012.01 1011.54 1011.01 1010.42 1009.77 1009.06 1008.32 1007.55 1006.77
1009.39 1009.34 1009.42 1009.62 1009.90 1010.22 1010.57 1010.91 1011.25 1011.57 1011.90 1012.25 1012.61 1013.01 1013.43 1013.87 1014.29 1014.67 1015.00 1015.23 1015.37 1015.39 1015.32 1015.15 1014.91 1014.62 1014.31 1013.98 1013.66 1013.34 1013.03 1012.72 1012.39 1012.05 1011.67 1011.26 1010.80 1010.29 1009.73 1009.12 1008.47 1007.78 1007.07 1006.34
1009.48 1009.46 1009.59 1009.84 1010.19 1010.60 1011.04 1011.48 1011.90 1012.29 1012.66 1013.02 1013.36 1013.71 1014.05 1014.38 1014.70 1014.98 1015.21 1015.37 1015.44 1015.41 1015.29 1015.09 1014.81 1014.47 1014.10 1013.71 1013.30 1012.91 1012.52 1012.13 1011.75 1011.37 1010.98 1010.58 1010.14 1009.68 1009.18 1008.63 1008.05 1007.43 1006.78 1006.10
Thickness
5863 5850 5841 5851 5860 5857 5849 5841 5840 5847 5866 5860 5848 5842 5845 5850 5847 5839 5833 5828 5822 5819 5819 5817 5813 5809 5803 5798 5793 5790 5786 5784 5782 5778 5775 5773 5772 5773 5772 5772 5770 5769 5768 5767
5845 5841 5860 5872 5871 5860 5851 5839 5841 5850 5868 5860 5848 5843 5850 5851 5849 5846 5839 5833 5828 5823 5820 5816 5814 5811 5805 5799 5795 5791 5788 5786 5784 5781 5779 5777 5776 5775 5774 5773 5772 5771 5769 5768
5835 5853 5871 5868 5861 5853 5852 5848 5846 5845 5857 5859 5844 5827 5833 5845 5853 5852 5849 5844 5838 5830 5822 5818 5815 5813 5809 5803 5798 5796 5792 5789 5786 5785 5783 5780 5778 5775 5774 5772 5772 5772 5771 5770
5845 5863 5867 5859 5856 5856 5844 5862 5859 5851 5839 5833 5837 5799 5817 5834 5837 5846 5847 5847 5843 5839 5831 5825 5820 5816 5812 5808 5805 5800 5796 5792 5789 5787 5784 5780 5775 5772 5773 5774 5774 5773 5773 5771
5841 5858 5857 5853 5861 5865 5860 5872 5864 5852 5839 5833 5836 5813 5811 5828 5824 5840 5848 5850 5849 5845 5839 5831 5826 5821 5818 5815 5809 5804 5799 5794 5792 5789 5786 5782 5780 5779 5779 5778 5775 5774 5774 5773
5850 5869 5868 5865 5874 5876 5872 5864 5854 5848 5835 5812 5829 5821 5809 5824 5833 5843 5850 5854 5852 5849 5844 5837 5833 5827 5822 5819 5813 5807 5800 5796 5794 5791 5788 5784 5781 5780 5778 5776 5774 5774 5775 5774
5831 5850 5868 5874 5859 5865 5862 5838 5813 5800 5797 5801 5831 5824 5824 5843 5852 5856 5854 5854 5856 5852 5846 5838 5832 5827 5823 5819 5815 5810 5802 5797 5795 5792 5789 5787 5784 5781 5779 5777 5776 5775 5775 5774
5815 5820 5851 5863 5856 5848 5851 5840 5806 5786 5787 5803 5816 5809 5833 5859 5865 5868 5864 5861 5858 5853 5848 5841 5835 5830 5825 5821 5817 5811 5804 5799 5797 5794 5791 5788 5786 5784 5782 5780 5779 5778 5777 5777
5822 5824 5858 5867 5868 5860 5843 5840 5847 5824 5810 5797 5801 5811 5834 5858 5859 5862 5861 5859 5855 5853 5849 5844 5839 5834 5829 5824 5819 5814 5807 5802 5799 5796 5792 5789 5787 5785 5784 5783 5781 5781 5779 5779
5835 5820 5843 5860 5863 5862 5857 5851 5838 5819 5796 5784 5791 5795 5804 5826 5839 5851 5854 5853 5853 5853 5850 5846 5841 5837 5832 5828 5822 5818 5811 5805 5802 5799 5795 5792 5789 5787 5786 5784 5782 5780 5780 5779
5837 5817 5825 5839 5831 5833 5840 5839 5836 5829 5820 5795 5780 5792 5829 5830 5842 5846 5850 5855 5854 5851 5847 5845 5842 5839 5834 5829 5823 5817 5811 5806 5802 5800 5797 5794 5791 5789 5786 5784 5783 5781 5779 5778
5830 5819 5810 5826 5848 5856 5847 5841 5835 5815 5810 5813 5802 5802 5846 5844 5846 5849 5850 5853 5852 5849 5846 5843 5841 5837 5832 5828 5823 5818 5813 5808 5804 5801 5798 5795 5792 5789 5786 5784 5783 5781 5779 5777
5820 5807 5790 5798 5820 5837 5834 5840 5841 5837 5828 5812 5800 5797 5840 5842 5844 5849 5851 5848 5846 5844 5841 5838 5835 5831 5827 5824 5821 5818 5814 5810 5807 5803 5798 5794 5791 5789 5786 5784 5783 5781 5778 5776
5816 5797 5791 5787 5803 5821 5820 5827 5834 5828 5813 5808 5808 5804 5818 5827 5830 5839 5844 5842 5841 5838 5834 5831 5827 5825 5823 5821 5818 5816 5813 5811 5807 5802 5797 5792 5789 5787 5785 5784 5782 5779 5777 5774
5809 5790 5795 5805 5819 5823 5820 5822 5827 5823 5822 5810 5807 5803 5808 5821 5826 5831 5836 5835 5832 5829 5827 5825 5821 5819 5818 5817 5815 5813 5811 5809 5806 5800 5795 5791 5789 5787 5784 5782 5779 5777 5774 5772
5798 5786 5789 5790 5809 5815 5811 5816 5822 5823 5824 5817 5809 5802 5816 5826 5827 5827 5827 5825 5822 5821 5821 5820 5818 5815 5813 5811 5810 5807 5805 5804 5801 5796 5793 5790 5786 5783 5780 5778 5776 5773 5771 5769
5785 5776 5771 5775 5793 5797 5790 5808 5813 5817 5824 5819 5801 5805 5813 5811 5812 5815 5817 5816 5814 5814 5814 5811 5810 5810 5809 5808 5806 5802 5801 5800 5796 5792 5789 5786 5782 5778 5776 5774 5772 5769 5767 5765
5772 5768 5769 5771 5773 5757 5791 5823 5823 5818 5820 5824 5815 5811 5807 5803 5809 5812 5813 5810 5807 5806 5804 5803 5804 5805 5805 5805 5803 5800 5798 5794 5790 5787 5784 5782 5778 5774 5771 5768 5766 5765 5763 5760
5777 5765 5760 5761 5757 5765 5790 5809 5811 5804 5800 5815 5810 5805 5802 5802 5802 5799 5806 5805 5801 5800 5799 5799 5800 5800 5799 5797 5796 5793 5791 5788 5784 5780 5778 5777 5773 5769 5765 5762 5760 5759 5757 5755
5773 5767 5755 5755 5746 5746 5772 5799 5815 5803 5780 5802 5802 5796 5793 5790 5776 5777 5793 5796 5795 5794 5794 5793 5794 5792 5790 5789 5788 5783 5780 5778 5775 5775 5773 5772 5769 5764 5760 5758 5756 5754 5752 5749
5748 5747 5747 5747 5745 5753 5776 5792 5797 5763 5760 5787 5791 5787 5783 5778 5775 5780 5787 5786 5787 5786 5786 5786 5784 5781 5780 5780 5779 5773 5771 5769 5769 5769 5767 5765 5762 5759 5755 5752 5750 5747 5745 5742
5741 5740 5739 5742 5736 5737 5770 5776 5763 5756 5771 5776 5775 5776 5773 5773 5774 5774 5775 5775 5775 5775 5776 5775 5773 5771 5771 5771 5768 5763 5761 5762 5761 5759 5757 5755 5753 5751 5750 5746 5743 5740 5737 5735
5740 5742 5743 5739 5737 5749 5760 5759 5762 5765 5762 5763 5764 5765 5764 5763 5762 5762 5762 5763 5765 5765 5766 5765 5762 5760 5760 5760 5758 5753 5753 5753 5750 5748 5746 5745 5743 5741 5740 5737 5734 5732 5730 5728
5735 5745 5738 5732 5734 5743 5749 5752 5754 5756 5755 5757 5759 5758 5757 5753 5753 5751 5751 5751 5752 5753 5754 5754 5751 5748 5747 5749 5748 5746 5745 5744 5740 5737 5735 5734 5732 5730 5729 5728 5726 5724 5722 5720
5726 5730 5727 5721 5725 5731 5735 5741 5743 5746 5749 5750 5751 5750 5747 5744 5741 5740 5739 5740 5741 5742 5743 5742 5739 5737 5737 5738 5737 5737 5736 5733 5730 5727 5726 5725 5723 5721 5718 5717 5715 5714 5714 5712
5720 5720 5715 5711 5721 5723 5724 5733 5738 5735 5734 5736 5737 5735 5736 5734 5730 5729 5728 5729 5730 5730 5730 5729 5728 5727 5728 5728 5726 5726 5726 5724 5719 5717 5716 5716 5714 5712 5710 5707 5705 5704 5704 5703